SCP
2 2 2 2 2 2 2 2 2 2 2 2 2 2 2 1 1 1 1 1 1 1 0 0 0 0 0 0 0 0 0 0 0 0 0 0 0 0 0 0 0 0 0
2 2 2 2 2 2 2 2 2 2 2 2 2 2 2 2 1 1 1 1 1 1 0 0 0 0 0 0 0 0 0 0 0 0 0 0 0 0 0 0 0 0 0
2 2 2 2 2 2 2 2 2 2 2 2 2 2 2 2 1 1 1 1 1 0 0 0 0 0 0 0 0 0 0 0 0 0 0 0 0 0 0 0 0 0 0
1 1 2 2 2 2 2 2 2 2 2 2 2 2 2 1 1 1 1 1 1 0 0 0 0 0 0 0 0 0 0 0 0 0 0 0 0 0 0 0 0 0 0
1 1 2 2 2 2 2 2 2 2 2 2 2 2 1 1 1 1 1 1 1 0 0 0 0 0 0 0 0 0 0 0 0 0 0 0 0 0 0 0 0 0 0
1 1 2 2 2 2 2 2 2 2 2 1 1 1 1 1 1 1 1 1 0 0 0 0 0 0 0 0 0 0 0 0 0 0 0 0 0 0 0 0 0 0 0
1 2 2 2 2 2 2 2 2 2 1 1 1 1 1 1 1 1 1 0 0 0 0 0 0 0 0 0 0 0 0 0 0 0 0 0 0 0 0 0 0 0 0
1 2 2 2 2 2 2 2 2 1 1 1 1 1 1 1 1 1 0 0 0 0 0 0 0 0 0 0 0 0 0 0 0 0 0 0 0 0 0 0 0 0 0
1 1 1 1 1 1 2 2 1 1 1 1 1 1 1 1 1 0 0 0 0 0 0 0 0 0 0 0 0 0 0 0 0 0 0 0 0 0 0 0 0 0 0
1 1 1 1 1 1 1 1 1 1 1 1 1 1 1 1 0 0 0 0 0 0 0 0 0 0 0 0 0 0 0 0 0 0 0 0 0 0 0 0 0 0 0
1 1 1 1 1 1 1 1 1 1 1 1 1 1 0 0 0 0 0 0 0 0 0 0 0 0 0 0 0 0 0 0 0 0 0 0 0 0 0 0 0 0 0
1 1 1 1 1 1 1 1 1 1 1 0 0 0 0 0 0 0 0 0 0 0 0 0 0 0 0 0 0 0 0 0 0 0 0 0 0 0 0 0 0 0 0
1 1 1 1 1 1 1 1 1 1 0 0 0 0 0 0 0 0 0 0 0 0 0 0 0 0 0 0 0 0 0 0 0 0 0 0 0 0 0 0 0 0 0
1 1 0 0 0 0 1 1 0 0 0 0 0 0 0 0 0 0 0 0 0 0 0 0 0 0 0 0 0 0 0 0 0 0 0 0 0 0 0 0 0 0 0
0 0 0 0 0 0 0 0 0 0 0 0 0 0 0 0 0 0 0 0 0 0 0 0 0 0 0 0 0 0 0 0 0 0 0 0 0 0 0 0 0 0 0
0 0 0 0 0 0 0 0 0 0 0 0 0 0 0 0 0 0 0 0 0 0 0 0 0 0 0 0 0 0 0 0 0 0 0 0 0 0 0 0 0 0 0
0 0 0 0 0 0 0 0 0 0 0 0 0 0 0 0 0 0 0 0 0 0 0 0 0 0 0 0 0 0 0 0 0 0 0 0 0 0 0 0 0 0 0
0 0 0 0 0 0 0 0 0 0 0 0 0 0 0 0 0 0 0 0 0 0 0 0 0 0 0 0 0 0 0 0 0 0 0 0 0 0 0 0 0 0 0
0 0 0 0 0 0 0 0 0 0 0 0 0 0 0 0 0 0 0 0 0 0 0 0 0 0 0 0 0 0 0 0 0 0 0 0 0 0 0 0 0 0 0
0 0 0 0 0 0 0 0 0 0 0 0 0 0 0 0 0 0 0 0 0 0 0 0 0 0 0 0 0 0 0 0 0 0 0 0 0 0 0 0 0 0 0
0 0 0 0 0 0 0 0 0 0 0 0 0 0 0 0 0 0 0 0 0 0 0 0 0 0 0 0 0 0 0 0 0 0 0 0 0 0 0 0 0 0 0
0 0 0 0 0 0 0 0 0 0 0 0 0 0 0 0 0 0 0 0 0 0 0 0 0 0 0 0 0 0 0 0 0 0 0 0 0 0 0 0 0 0 0
0 0 0 0 0 0 0 0 0 0 0 0 0 0 0 0 0 0 0 0 0 0 0 0 0 0 0 0 0 0 0 0 0 0 0 0 0 0 0 0 0 0 0
0 0 0 0 0 0 0 0 0 0 0 0 0 0 0 0 0 0 0 0 0 0 0 0 0 0 0 0 0 0 0 0 0 0 0 0 0 0 0 0 0 0 0
0 0 0 0 0 0 0 0 0 0 0 0 0 0 0 0 0 0 0 0 0 0 0 0 0 0 0 0 0 0 0 0 0 0 0 0 0 0 0 0 0 0 0
0 0 0 0 0 0 0 0 0 0 0 0 0 0 0 0 0 0 0 0 0 0 0 0 0 0 0 0 0 0 0 0 0 0 0 0 0 0 0 0 0 0 0
Wind_Speed
10 9 10 10 9 7 7 6 6 5 3 3 2 2 2 1 2 2 2 1 1 2 2 2 2 3 2 2 3 2 4 2 2 2 3 2 2 2 1 1 1 0 0
10 9 9 9 9 8 7 6 5 5 4 2 2 2 1 1 1 2 2 1 1 2 2 3 2 2 2 2 3 2 2 3 2 2 3 2 1 1 1 1 1 0 0
11 11 9 9 10 8 7 6 5 5 3 3 2 2 2 1 1 2 2 1 1 2 2 2 2 3 2 2 2 2 2 3 3 1 1 2 2 2 1 1 0 1 0
11 11 11 10 9 8 7 6 5 5 4 3 2 2 2 2 2 1 2 1 1 1 1 1 2 3 3 2 3 3 3 3 3 2 1 1 1 2 2 2 0 0 0
11 11 11 11 10 8 7 6 5 4 4 3 2 2 1 1 2 2 2 1 1 1 1 2 2 2 2 3 3 3 3 2 3 3 3 3 2 2 2 3 1 1 1
9 10 10 10 9 8 8 7 6 5 3 3 2 1 1 1 2 1 1 1 1 1 2 2 2 2 2 2 3 3 3 2 3 3 2 2 2 2 2 2 2 2 1
8 9 10 10 9 8 8 7 7 5 4 4 2 2 2 1 1 1 0 1 0 1 2 2 1 2 2 2 2 2 3 3 3 3 2 2 2 2 1 2 2 2 2
8 8 8 8 8 8 7 7 7 6 5 4 3 2 2 1 1 1 0 0 1 1 1 1 1 2 2 3 3 2 3 2 3 4 3 2 2 2 1 1 2 2 2
8 8 8 6 7 8 7 7 6 6 5 4 4 3 2 2 1 0 0 1 1 0 1 1 1 1 2 3 3 2 3 3 3 3 3 2 2 2 2 2 2 2 3
9 9 7 6 6 7 7 7 6 5 4 4 3 3 2 2 1 1 1 1 1 1 1 1 1 2 2 2 3 3 3 3 3 3 2 2 2 2 2 2 2 2 2
9 8 7 6 6 6 7 7 6 6 5 4 3 3 2 2 1 1 1 1 1 1 2 2 2 2 2 2 2 3 3 3 3 4 3 3 3 2 2 2 2 2 2
9 8 8 7 6 6 7 7 6 6 5 4 3 3 2 2 2 1 1 0 1 1 2 2 2 2 2 3 3 4 4 3 3 4 3 4 3 3 2 2 3 2 2
7 8 7 7 6 6 6 6 5 5 5 5 4 3 3 2 2 1 1 0 1 1 2 1 2 2 2 2 3 3 3 4 4 3 3 3 3 4 3 3 3 3 3
6 6 7 6 6 5 6 5 5 4 4 4 4 3 2 3 2 2 1 1 1 1 2 1 2 2 3 3 4 4 4 3 3 3 3 3 3 3 4 3 3 3 2
7 6 6 6 6 5 5 5 5 4 3 3 3 3 2 2 2 1 1 1 1 1 1 2 2 2 2 3 5 5 5 4 4 3 3 2 2 3 3 3 3 3 2
7 7 6 6 6 5 5 5 5 4 3 3 3 3 3 3 2 2 1 1 0 1 2 2 2 3 3 4 4 4 5 4 4 3 3 3 2 1 2 3 4 3 3
6 7 6 6 5 5 4 6 6 5 4 3 3 3 3 3 2 2 1 1 0 1 2 2 2 1 1 3 4 5 4 5 4 4 3 4 3 3 2 3 4 4 6
6 6 6 6 6 5 4 5 6 5 5 4 3 3 3 2 2 2 2 1 0 1 2 2 2 1 1 2 4 6 4 4 4 4 3 3 2 3 3 4 3 3 3
7 6 6 6 6 5 5 6 6 5 5 4 3 3 2 2 1 1 1 1 1 2 2 2 2 2 2 3 4 4 4 4 4 3 3 3 2 1 3 3 4 4 4
7 6 6 6 6 6 6 6 5 5 4 3 3 2 1 2 2 1 1 1 2 2 3 2 3 3 2 3 4 4 4 4 4 3 2 2 2 2 3 3 4 4 4
7 7 7 6 5 5 6 6 5 4 4 3 2 2 1 1 2 2 1 2 2 3 3 3 4 3 2 3 5 5 3 4 4 4 3 1 1 2 4 4 3 5 5
7 7 6 5 5 5 6 5 5 4 3 3 3 2 1 2 1 1 2 2 3 3 4 3 3 2 2 3 5 6 6 5 4 4 3 2 3 5 5 4 6 7 6
6 6 5 5 5 5 6 6 5 5 4 3 3 2 2 2 2 3 3 3 3 3 3 2 2 2 2 3 4 5 6 6 4 4 6 7 8 8 6 7 8 6 4
6 5 6 5 5 6 6 5 5 5 4 4 3 3 3 3 2 2 3 2 2 2 2 2 2 2 1 0 1 2 3 4 4 4 6 8 10 9 7 6 5 5 4
6 5 5 5 5 6 7 6 5 5 4 4 3 3 3 3 2 2 2 2 1 1 2 2 3 3 2 2 2 2 3 3 3 4 4 4 4 4 4 4 4 4 4
6 6 5 5 6 6 6 6 6 6 5 4 4 3 3 3 3 3 2 3 5 5 5 6 4 3 3 4 4 4 5 5 4 3 4 5 5 5 4 3 3 3 3
Wind_Direction
165 154 148 148 148 145 147 154 153 151 157 159 171 164 152 130 116 115 102 92 56 12 343 360 347 331 348 351 329 329 318 311 316 314 307 280 259 234 220 218 234 206 60
158 149 151 150 153 156 160 160 154 153 158 158 162 168 148 150 128 97 102 79 56 17 354 20 339 346 335 341 335 341 326 319 331 316 315 300 285 315 242 166 184 159 59
160 156 161 160 156 157 157 152 147 149 149 159 156 144 144 172 123 111 113 77 57 46 16 14 350 344 331 349 323 333 327 313 306 306 314 313 326 331 299 286 110 113 113
167 166 167 169 160 154 148 143 145 149 154 161 156 164 159 144 131 132 104 96 100 73 33 27 16 354 348 347 330 8 322 310 311 311 287 273 291 286 303 303 330 289 344
166 162 166 165 156 153 147 142 138 146 149 157 165 177 140 113 96 90 110 145 162 161 81 37 26 358 352 351 344 337 332 321 319 316 312 308 300 280 272 289 300 297 256
157 152 152 148 147 149 145 142 143 141 148 154 143 141 143 112 112 108 147 195 171 140 77 48 27 357 354 344 344 331 323 321 315 303 297 302 302 308 298 291 298 286 277
147 147 147 147 146 149 146 146 147 146 147 144 146 137 120 140 150 130 278 289 69 71 64 36 4 354 346 331 329 314 312 315 310 300 298 300 293 291 292 285 290 289 284
141 142 142 143 147 146 144 146 147 149 149 147 141 135 159 174 110 98 255 12 47 41 54 12 354 351 332 330 322 307 305 308 298 298 300 296 293 292 282 280 286 293 282
135 134 133 140 145 145 144 145 143 143 148 148 142 148 136 96 82 70 7 46 45 17 33 324 331 329 328 323 321 310 312 309 305 303 307 304 299 288 281 267 258 275 291
137 135 136 138 136 137 138 140 144 146 142 143 159 145 130 131 129 83 56 37 30 14 338 332 320 314 310 318 320 314 310 309 304 293 296 296 293 302 298 282 269 254 263
139 138 137 133 128 134 138 142 145 145 145 149 138 122 130 138 137 138 102 46 12 333 331 334 331 317 324 334 319 307 309 313 312 317 323 315 311 316 311 303 290 282 269
135 137 140 137 139 146 143 147 150 151 152 149 136 146 157 154 152 124 104 59 332 322 331 329 327 328 349 338 329 327 338 334 330 328 328 326 328 333 325 316 298 285 271
137 142 146 145 146 152 148 149 155 156 158 151 146 147 160 151 138 138 143 137 318 317 307 318 325 331 345 334 337 338 337 340 334 330 333 336 335 327 325 311 300 288 286
144 149 148 148 146 152 154 151 149 153 158 152 147 147 156 144 145 157 167 194 261 282 296 321 325 338 346 347 354 347 335 337 330 327 334 333 331 327 321 311 308 301 293
160 159 154 150 152 151 152 153 150 157 151 155 162 158 160 155 155 156 185 202 249 288 325 328 324 323 340 7 4 338 331 336 328 327 328 323 328 320 307 312 317 315 307
172 163 164 160 160 158 161 160 158 162 161 174 178 162 166 169 165 174 183 186 279 342 328 328 332 340 358 15 357 336 325 322 320 317 314 303 280 314 301 289 285 276 273
174 165 165 163 161 160 162 168 165 170 175 181 175 167 177 175 176 182 136 108 13 333 315 315 326 355 355 329 332 332 308 305 308 309 305 307 332 343 344 314 280 270 253
169 163 161 162 161 163 169 172 168 175 181 184 180 171 175 175 159 138 126 134 278 283 289 295 304 306 308 301 317 322 304 294 294 292 290 292 305 340 339 321 315 302 288
152 152 159 162 161 164 175 174 176 179 181 181 175 176 178 155 153 145 150 179 250 273 273 267 278 285 272 262 287 305 302 291 292 295 306 310 315 6 343 317 314 312 301
140 149 157 156 162 169 176 174 172 172 179 177 173 166 160 159 158 144 180 226 251 256 268 270 271 265 259 244 261 281 290 305 310 300 300 318 318 315 324 311 309 304 306
145 152 156 159 165 168 168 170 171 175 177 169 164 151 143 160 170 169 204 242 259 266 270 267 264 258 254 233 249 253 269 300 310 312 315 319 285 296 297 296 287 284 292
148 153 155 158 161 163 165 169 172 169 170 171 167 154 175 230 190 172 224 243 255 264 265 256 260 253 222 226 236 235 239 260 283 294 308 318 291 299 291 280 272 283 296
150 150 159 159 160 171 169 171 173 174 177 172 166 170 198 225 200 211 228 235 242 254 262 254 248 243 210 215 227 236 251 255 257 281 297 301 290 290 279 261 264 270 266
147 152 159 166 171 171 173 173 176 175 174 172 172 188 208 214 208 227 232 238 244 260 287 293 296 296 277 254 205 246 257 262 258 269 286 287 281 274 267 271 259 244 244
154 159 165 167 170 173 172 175 173 170 173 179 192 213 220 217 211 226 250 262 270 249 262 299 312 323 328 335 326 308 306 321 342 324 294 285 284 279 261 251 244 235 230
160 166 173 177 172 169 171 170 170 174 176 188 206 223 226 213 216 215 230 245 244 240 240 244 254 282 267 270 287 294 296 300 312 304 284 286 287 286 285 275 264 247 236